BAW112 WIII-WIDD

Flight info

Callsign BAW112
Flight time 1h 11m
Altitude 40000
Route DOLTA A585 PLB T25 IGUTU
Aircraft A35K/H-SDE2E3GHIJ3J4J5LM1ORWXY/LB1D1

Departure

Time 2026-04-30 13:11
Airport Soekarno-Hatta International Airport (WIII)

Arrival

Time 2026-04-30 14:22
Airport Hang Nadim International Airport (WIDD)
Time Latitude Longitude Altitude Speed Heading
2026-04-30 12:46 -6.11810 106.66308 44 ft 0 kts 158°
2026-04-30 12:54 -6.11802 106.66305 44 ft 4 kts 158°
2026-04-30 12:54 -6.11777 106.66295 43 ft 4 kts 158°
2026-04-30 12:54 -6.11752 106.66285 41 ft 4 kts 158°
2026-04-30 12:55 -6.11732 106.66276 40 ft 4 kts 134°
2026-04-30 12:55 -6.11726 106.66256 38 ft 4 kts 71°
2026-04-30 12:55 -6.11735 106.66232 39 ft 4 kts 68°
2026-04-30 12:55 -6.11739 106.66222 41 ft 0 kts 68°
2026-04-30 12:59 -6.11738 106.66224 41 ft 2 kts 68°
2026-04-30 12:59 -6.11726 106.66256 38 ft 6 kts 69°
2026-04-30 12:59 -6.11711 106.66295 43 ft 6 kts 69°
2026-04-30 12:59 -6.11696 106.66334 44 ft 6 kts 68°
2026-04-30 13:00 -6.11681 106.66369 44 ft 5 kts 67°
2026-04-30 13:00 -6.11661 106.66397 44 ft 4 kts 43°
2026-04-30 13:00 -6.11636 106.66405 44 ft 3 kts
2026-04-30 13:00 -6.11611 106.66397 44 ft 6 kts 341°
2026-04-30 13:01 -6.11559 106.66378 44 ft 10 kts 339°
2026-04-30 13:01 -6.11480 106.66348 44 ft 14 kts 338°
2026-04-30 13:01 -6.11388 106.66309 44 ft 14 kts 329°
2026-04-30 13:01 -6.11360 106.66230 45 ft 12 kts 259°
2026-04-30 13:02 -6.11390 106.66152 45 ft 12 kts 248°
2026-04-30 13:02 -6.11421 106.66075 44 ft 12 kts 248°
2026-04-30 13:02 -6.11452 106.65998 44 ft 12 kts 248°
2026-04-30 13:02 -6.11482 106.65923 44 ft 12 kts 248°
2026-04-30 13:03 -6.11512 106.65847 41 ft 11 kts 248°
2026-04-30 13:03 -6.11540 106.65775 44 ft 11 kts 248°
2026-04-30 13:03 -6.11567 106.65709 44 ft 10 kts 248°
2026-04-30 13:03 -6.11591 106.65648 44 ft 9 kts 249°
2026-04-30 13:04 -6.11614 106.65590 44 ft 10 kts 248°
2026-04-30 13:04 -6.11641 106.65523 44 ft 11 kts 248°
2026-04-30 13:04 -6.11673 106.65443 44 ft 13 kts 248°
2026-04-30 13:04 -6.11709 106.65353 45 ft 15 kts 248°
2026-04-30 13:05 -6.11748 106.65255 45 ft 16 kts 248°
2026-04-30 13:05 -6.11791 106.65148 45 ft 17 kts 248°
2026-04-30 13:05 -6.11836 106.65036 45 ft 18 kts 248°
2026-04-30 13:06 -6.11920 106.64824 45 ft 15 kts 248°
2026-04-30 13:06 -6.11956 106.64734 45 ft 13 kts 248°
2026-04-30 13:06 -6.11987 106.64655 45 ft 12 kts 248°
2026-04-30 13:06 -6.12019 106.64575 45 ft 13 kts 248°
2026-04-30 13:07 -6.12054 106.64489 45 ft 14 kts 248°
2026-04-30 13:07 -6.12091 106.64397 45 ft 15 kts 248°
2026-04-30 13:07 -6.12130 106.64300 45 ft 15 kts 249°
2026-04-30 13:07 -6.12169 106.64200 45 ft 15 kts 249°
2026-04-30 13:08 -6.12205 106.64107 45 ft 13 kts 248°
2026-04-30 13:08 -6.12237 106.64027 45 ft 11 kts 249°
2026-04-30 13:08 -6.12252 106.63958 45 ft 9 kts 273°
2026-04-30 13:08 -6.12231 106.63912 44 ft 6 kts 310°
2026-04-30 13:09 -6.12208 106.63899 41 ft 2 kts 343°
2026-04-30 13:09 -6.12189 106.63897 44 ft 4 kts 356°
2026-04-30 13:09 -6.12154 106.63903 43 ft 6 kts 14°
2026-04-30 13:09 -6.12104 106.63919 42 ft 8 kts 25°
2026-04-30 13:10 -6.12071 106.63959 46 ft 7 kts 65°
2026-04-30 13:10 -6.12054 106.64003 44 ft 10 kts 69°
2026-04-30 13:10 -6.11979 106.64193 45 ft 58 kts 68°
2026-04-30 13:10 -6.11746 106.64778 46 ft 122 kts 68°
2026-04-30 13:11 -6.11357 106.65751 89 ft 174 kts 68°
2026-04-30 13:11 -6.10907 106.66868 809 ft 166 kts 70°
2026-04-30 13:11 -6.10535 106.67951 1562 ft 166 kts 71°
2026-04-30 13:11 -6.10068 106.69030 1960 ft 171 kts 56°
2026-04-30 13:12 -6.09220 106.69893 2321 ft 180 kts 35°
2026-04-30 13:12 -6.07992 106.70362 2541 ft 198 kts 18°
2026-04-30 13:12 -6.06614 106.70821 2733 ft 220 kts 22°
2026-04-30 13:13 -6.03637 106.72308 3329 ft 255 kts 31°
2026-04-30 13:13 -6.02087 106.73237 3831 ft 262 kts 33°
2026-04-30 13:13 -5.98731 106.74697 4997 ft 271 kts
2026-04-30 13:14 -5.96877 106.74376 5555 ft 274 kts 337°
2026-04-30 13:14 -5.95362 106.73219 6122 ft 278 kts 310°
2026-04-30 13:14 -5.93564 106.69741 7220 ft 285 kts 295°
2026-04-30 13:15 -5.92748 106.67913 7758 ft 288 kts 295°
2026-04-30 13:15 -5.91068 106.64210 8859 ft 294 kts 296°
2026-04-30 13:15 -5.90202 106.62333 9439 ft 298 kts 296°
2026-04-30 13:16 -5.89323 106.60439 9988 ft 301 kts 296°
2026-04-30 13:16 -5.88420 106.58499 10291 ft 313 kts 296°
2026-04-30 13:16 -5.87490 106.56502 10508 ft 327 kts 296°
2026-04-30 13:17 -5.85473 106.52175 10947 ft 352 kts 295°
2026-04-30 13:17 -5.84420 106.49912 11157 ft 363 kts 295°
2026-04-30 13:17 -5.82261 106.45266 11909 ft 373 kts 295°
2026-04-30 13:18 -5.81162 106.42895 12319 ft 377 kts 295°
2026-04-30 13:18 -5.78930 106.38085 13139 ft 383 kts 295°
2026-04-30 13:18 -5.77801 106.35653 13553 ft 386 kts 295°
2026-04-30 13:19 -5.76666 106.33207 13927 ft 388 kts 295°
2026-04-30 13:19 -5.75520 106.30740 14319 ft 390 kts 296°
2026-04-30 13:19 -5.74244 106.28332 14686 ft 392 kts 305°
2026-04-30 13:19 -5.72379 106.26352 15026 ft 392 kts 324°
2026-04-30 13:20 -5.70070 106.24893 15413 ft 393 kts 332°
2026-04-30 13:20 -5.67677 106.23560 15785 ft 395 kts 333°
2026-04-30 13:20 -5.65262 106.22224 16158 ft 397 kts 333°
2026-04-30 13:20 -5.62846 106.20880 16538 ft 399 kts 333°
2026-04-30 13:21 -5.60419 106.19520 16909 ft 401 kts 333°
2026-04-30 13:21 -5.57970 106.18144 17278 ft 403 kts 333°
2026-04-30 13:21 -5.55520 106.16764 17649 ft 405 kts 333°
2026-04-30 13:22 -5.50572 106.13974 18346 ft 410 kts 333°
2026-04-30 13:22 -5.48078 106.12566 18667 ft 412 kts 333°
2026-04-30 13:22 -5.43066 106.09737 19642 ft 416 kts 333°
2026-04-30 13:23 -5.40567 106.08328 20096 ft 419 kts 333°
2026-04-30 13:23 -5.35420 106.05423 21075 ft 424 kts 333°
2026-04-30 13:24 -5.30271 106.02515 22037 ft 430 kts 333°
2026-04-30 13:24 -5.25008 105.99544 23000 ft 436 kts 333°
2026-04-30 13:25 -5.19682 105.96537 23857 ft 442 kts 333°
2026-04-30 13:25 -5.14292 105.93495 24657 ft 447 kts 333°
2026-04-30 13:26 -5.06080 105.88850 25976 ft 456 kts 332°
2026-04-30 13:26 -5.00564 105.85713 26919 ft 461 kts 332°
2026-04-30 13:27 -4.94946 105.82513 27849 ft 467 kts 332°
2026-04-30 13:28 -4.86386 105.77636 29190 ft 476 kts 332°
2026-04-30 13:28 -4.80593 105.74339 30039 ft 482 kts 332°
2026-04-30 13:28 -4.77666 105.72673 30381 ft 485 kts 332°
2026-04-30 13:29 -4.71740 105.69300 31011 ft 492 kts 332°
2026-04-30 13:29 -4.65760 105.65897 31690 ft 497 kts 332°
2026-04-30 13:30 -4.56682 105.60732 32626 ft 503 kts 332°
2026-04-30 13:31 -4.50608 105.57277 33181 ft 508 kts 332°
2026-04-30 13:31 -4.41350 105.52012 34141 ft 509 kts 332°
2026-04-30 13:32 -4.35175 105.48503 34735 ft 510 kts 332°
2026-04-30 13:32 -4.29020 105.45007 35394 ft 508 kts 333°
2026-04-30 13:33 -4.22880 105.41521 36019 ft 506 kts 333°
2026-04-30 13:33 -4.16764 105.38023 36617 ft 505 kts 332°
2026-04-30 13:34 -4.13717 105.36270 36902 ft 505 kts 332°
2026-04-30 13:34 -4.04592 105.31053 37782 ft 503 kts 332°
2026-04-30 13:35 -4.01546 105.29321 38005 ft 503 kts 332°
2026-04-30 13:35 -3.95458 105.25883 38474 ft 503 kts 333°
2026-04-30 13:36 -3.89357 105.22469 38923 ft 501 kts 333°
2026-04-30 13:36 -3.86317 105.20769 39117 ft 501 kts 333°
2026-04-30 13:36 -3.80277 105.17380 39502 ft 500 kts 333°
2026-04-30 13:37 -3.77250 105.15678 39674 ft 499 kts 333°
2026-04-30 13:37 -3.71191 105.12268 39924 ft 500 kts 333°
2026-04-30 13:38 -3.62101 105.07150 39928 ft 500 kts 333°
2026-04-30 13:39 -3.50992 105.00899 39925 ft 500 kts 333°
2026-04-30 13:40 -3.41879 104.95772 39928 ft 500 kts 333°
2026-04-30 13:40 -3.34823 104.91803 39925 ft 500 kts 333°
2026-04-30 13:41 -3.29745 104.88947 39923 ft 500 kts 333°
2026-04-30 13:41 -3.23669 104.85531 39919 ft 500 kts 333°
2026-04-30 13:42 -3.17592 104.82114 39921 ft 500 kts 333°
2026-04-30 13:42 -3.08486 104.76996 39915 ft 501 kts 333°
2026-04-30 13:43 -3.02447 104.73602 39912 ft 500 kts 333°
2026-04-30 13:43 -2.96381 104.70193 39911 ft 500 kts 333°
2026-04-30 13:44 -2.90221 104.66947 39913 ft 499 kts 340°
2026-04-30 13:44 -2.83532 104.65282 39911 ft 494 kts 356°
2026-04-30 13:45 -2.73239 104.64769 39920 ft 493 kts
2026-04-30 13:46 -2.66360 104.64641 39919 ft 494 kts
2026-04-30 13:46 -2.59533 104.64471 39920 ft 494 kts
2026-04-30 13:47 -2.52654 104.64260 39920 ft 495 kts
2026-04-30 13:47 -2.45756 104.64020 39922 ft 496 kts
2026-04-30 13:48 -2.38853 104.63757 39920 ft 496 kts
2026-04-30 13:48 -2.31960 104.63131 39922 ft 498 kts 354°
2026-04-30 13:49 -2.25095 104.62120 39924 ft 498 kts 353°
2026-04-30 13:49 -2.18226 104.61085 39924 ft 499 kts 354°
2026-04-30 13:50 -2.11395 104.60072 39926 ft 500 kts 354°
2026-04-30 13:50 -2.01076 104.58535 39928 ft 500 kts 354°
2026-04-30 13:51 -1.94192 104.57495 39927 ft 500 kts 353°
2026-04-30 13:51 -1.87320 104.56436 39931 ft 500 kts 353°
2026-04-30 13:52 -1.80441 104.55390 39930 ft 500 kts 354°
2026-04-30 13:52 -1.73551 104.54370 39930 ft 501 kts 354°
2026-04-30 13:53 -1.66647 104.53341 39931 ft 501 kts 354°
2026-04-30 13:53 -1.60819 104.52466 39931 ft 501 kts 354°
2026-04-30 13:54 -1.53921 104.51427 39931 ft 501 kts 354°
2026-04-30 13:54 -1.47026 104.50388 39930 ft 501 kts 354°
2026-04-30 13:55 -1.40097 104.49344 39931 ft 504 kts 354°
2026-04-30 13:55 -1.33192 104.48303 39930 ft 505 kts 354°
2026-04-30 13:56 -1.26204 104.47249 39930 ft 505 kts 354°
2026-04-30 13:56 -1.19296 104.46208 39930 ft 505 kts 354°
2026-04-30 13:57 -1.12345 104.45160 39906 ft 505 kts 354°
2026-04-30 13:57 -1.08879 104.44636 39652 ft 500 kts 355°
2026-04-30 13:57 -1.05442 104.44117 39026 ft 500 kts 355°
2026-04-30 13:58 -1.01989 104.43598 38336 ft 501 kts 355°
2026-04-30 13:58 -0.95102 104.42561 36984 ft 500 kts 354°
2026-04-30 13:58 -0.91663 104.42033 36318 ft 499 kts 354°
2026-04-30 13:59 -0.88228 104.41504 35641 ft 499 kts 353°
2026-04-30 13:59 -0.84785 104.40977 34941 ft 500 kts 353°
2026-04-30 13:59 -0.81344 104.40457 34192 ft 502 kts 354°
2026-04-30 13:59 -0.77881 104.39945 33331 ft 505 kts 354°
2026-04-30 14:00 -0.74402 104.39428 32498 ft 506 kts 353°
2026-04-30 14:00 -0.67511 104.38391 31397 ft 496 kts 353°
2026-04-30 14:00 -0.64100 104.37877 30830 ft 493 kts 353°
2026-04-30 14:01 -0.60728 104.37370 30256 ft 489 kts 353°
2026-04-30 14:01 -0.57412 104.36870 29649 ft 486 kts 353°
2026-04-30 14:01 -0.54081 104.36368 29072 ft 482 kts 353°
2026-04-30 14:01 -0.50782 104.35871 28514 ft 477 kts 353°
2026-04-30 14:02 -0.47517 104.35379 27973 ft 472 kts 354°
2026-04-30 14:02 -0.44281 104.34891 27422 ft 467 kts 354°
2026-04-30 14:02 -0.41076 104.34408 26903 ft 463 kts 354°
2026-04-30 14:02 -0.37905 104.33930 26356 ft 459 kts 354°
2026-04-30 14:03 -0.34755 104.33455 25830 ft 455 kts 354°
2026-04-30 14:03 -0.31630 104.32984 25300 ft 452 kts 354°
2026-04-30 14:03 -0.28533 104.32518 24776 ft 448 kts 354°
2026-04-30 14:03 -0.25460 104.32055 24248 ft 445 kts 354°
2026-04-30 14:04 -0.22408 104.31582 23732 ft 443 kts 353°
2026-04-30 14:04 -0.19416 104.31034 23005 ft 443 kts 352°
2026-04-30 14:04 -0.16398 104.30449 22373 ft 440 kts 352°
2026-04-30 14:04 -0.13403 104.29865 21819 ft 435 kts 352°
2026-04-30 14:05 -0.10451 104.29293 21283 ft 431 kts 352°
2026-04-30 14:05 -0.07516 104.28725 20738 ft 426 kts 352°
2026-04-30 14:05 -0.04624 104.28166 20205 ft 422 kts 352°
2026-04-30 14:05 -0.01750 104.27612 19673 ft 418 kts 352°
2026-04-30 14:06 0.01097 104.27064 19124 ft 414 kts 352°
2026-04-30 14:06 0.06713 104.25982 18053 ft 408 kts 352°
2026-04-30 14:07 0.12233 104.24918 16954 ft 398 kts 352°
2026-04-30 14:07 0.14939 104.24396 16424 ft 394 kts 352°
2026-04-30 14:07 0.17612 104.23882 15919 ft 389 kts 352°
2026-04-30 14:08 0.22879 104.22869 14895 ft 381 kts 352°
2026-04-30 14:08 0.25471 104.22364 14391 ft 377 kts 351°
2026-04-30 14:08 0.30571 104.21365 13357 ft 369 kts 351°
2026-04-30 14:09 0.33080 104.20878 12850 ft 364 kts 351°
2026-04-30 14:09 0.35553 104.20399 12359 ft 359 kts 351°
2026-04-30 14:09 0.40399 104.19464 11400 ft 350 kts 351°
2026-04-30 14:10 0.42771 104.19007 10927 ft 345 kts 351°
2026-04-30 14:10 0.45084 104.18561 10561 ft 338 kts 352°
2026-04-30 14:10 0.47340 104.18135 10429 ft 322 kts 352°
2026-04-30 14:10 0.49523 104.17724 10303 ft 308 kts 352°
2026-04-30 14:11 0.51557 104.17337 10181 ft 295 kts 351°
2026-04-30 14:11 0.53533 104.16950 10061 ft 283 kts 351°
2026-04-30 14:11 0.55413 104.16476 9860 ft 281 kts 344°
2026-04-30 14:11 0.57297 104.15769 9700 ft 294 kts 340°
2026-04-30 14:12 0.59194 104.14993 9425 ft 293 kts 340°
2026-04-30 14:12 0.61086 104.14224 8917 ft 294 kts 341°
2026-04-30 14:12 0.62974 104.13463 8531 ft 291 kts 340°
2026-04-30 14:12 0.64217 104.12954 8313 ft 290 kts 340°
2026-04-30 14:13 0.66700 104.11935 7877 ft 288 kts 340°
2026-04-30 14:13 0.68552 104.11178 7562 ft 286 kts 339°
2026-04-30 14:13 0.70391 104.10417 7229 ft 285 kts 339°
2026-04-30 14:13 0.72217 104.09667 6916 ft 283 kts 340°
2026-04-30 14:14 0.74036 104.08931 6598 ft 281 kts 339°
2026-04-30 14:14 0.75846 104.08190 6262 ft 280 kts 340°
2026-04-30 14:14 0.77653 104.07463 5934 ft 279 kts 340°
2026-04-30 14:14 0.79449 104.06748 5613 ft 277 kts 340°
2026-04-30 14:15 0.81233 104.06029 5291 ft 276 kts 340°
2026-04-30 14:15 0.83009 104.05310 4986 ft 274 kts 340°
2026-04-30 14:15 0.84746 104.04608 4805 ft 263 kts 340°
2026-04-30 14:15 0.86406 104.03936 4659 ft 252 kts 340°
2026-04-30 14:16 0.88000 104.03291 4486 ft 241 kts 340°
2026-04-30 14:16 0.89500 104.02684 4245 ft 225 kts 340°
2026-04-30 14:16 0.90889 104.02121 4018 ft 210 kts 340°
2026-04-30 14:16 0.92190 104.01593 3878 ft 196 kts 340°
2026-04-30 14:17 0.93426 104.01094 3708 ft 186 kts 340°
2026-04-30 14:17 0.94585 104.00623 3578 ft 174 kts 340°
2026-04-30 14:17 0.95687 104.00177 3375 ft 169 kts 340°
2026-04-30 14:17 0.96795 103.99806 3159 ft 167 kts 349°
2026-04-30 14:18 0.97945 103.99805 2944 ft 165 kts 13°
2026-04-30 14:18 0.98962 104.00292 2762 ft 163 kts 36°
2026-04-30 14:18 1.00678 104.01768 2536 ft 162 kts 42°
2026-04-30 14:19 1.02352 104.03248 2221 ft 159 kts 42°
2026-04-30 14:19 1.03161 104.03966 2008 ft 150 kts 43°
2026-04-30 14:19 1.03913 104.04635 1800 ft 141 kts 43°
2026-04-30 14:20 1.04641 104.05281 1639 ft 140 kts 43°
2026-04-30 14:20 1.05367 104.05926 1469 ft 140 kts 43°
2026-04-30 14:20 1.06827 104.07220 1133 ft 139 kts 43°
2026-04-30 14:21 1.07544 104.07855 975 ft 140 kts 44°
2026-04-30 14:21 1.08271 104.08502 814 ft 141 kts 43°
2026-04-30 14:21 1.09726 104.09804 466 ft 142 kts 40°
2026-04-30 14:22 1.10464 104.10446 270 ft 139 kts 42°
2026-04-30 14:22 1.11736 104.11562 141 ft 71 kts 41°
2026-04-30 14:22 1.11937 104.11739 142 ft 27 kts 41°
2026-04-30 14:23 1.12171 104.11947 144 ft 26 kts 41°
2026-04-30 14:23 1.12437 104.12163 143 ft 24 kts 30°
2026-04-30 14:24 1.12678 104.12236 142 ft 10 kts 343°
2026-04-30 14:24 1.12693 104.12200 142 ft 5 kts 261°
2026-04-30 14:25 1.12588 104.12092 143 ft 16 kts 221°
2026-04-30 14:25 1.12401 104.11927 143 ft 14 kts 221°
2026-04-30 14:26 1.12344 104.11797 143 ft 11 kts 267°
2026-04-30 14:26 1.12302 104.11742 143 ft 10 kts 223°
2026-04-30 14:26 1.12212 104.11663 143 ft 2 kts 222°
2026-04-30 14:27 1.12193 104.11645 143 ft 5 kts 223°
2026-04-30 14:27 1.12156 104.11612 143 ft 9 kts 222°
2026-04-30 14:27 1.12126 104.11586 143 ft 5 kts 221°
2026-04-30 14:28 1.12135 104.11539 143 ft 4 kts 315°
2026-04-30 14:28 1.12151 104.11522 143 ft 3 kts 312°
2026-04-30 14:28 1.12163 104.11509 143 ft 1 kts 312°
2026-04-30 14:28 1.12165 104.11507 143 ft 1 kts 312°